This demonstration page uses our WeatherBlox Daily Observations layout. Learn more.

38.89511, -77.03637

Hourly Observations for September 6, 2017

Temp ( °F °C ) Dew Point ( °F °C ) Humidity (%) Winds ( mph kmh ) Pressure ( in mb ) Visibility ( mi km ) Precip ( " mm )
12:52 am 00:52 Cloudy 71 21.7 68 20 90 90 WSW 7 11 29.83 1010 10 16.09344 0 0
1:52 am 01:52 Cloudy with Light Rain 70 21.1 68 20 93 93 S 5 7 29.83 1010 7 11.265408 0.01 0.254
2:52 am 02:52 Cloudy 70 21.1 68 20 93 93 Calm 29.8 1009 10 16.09344 0.01 0.254
3:52 am 03:52 Cloudy 70 21.1 68 20 93 93 NE 5 7 29.8 1009 9 14.484096 0 0
4:21 am 04:21 Mostly Cloudy 71 21.7 69 20.6 94 94 NNW 6 9 29.8 1009 7 11.265408 0 0
4:32 am 04:32 Cloudy 70 21.1 69 20.6 97 97 NW 7 11 29.8 1009 7 11.265408 0 0
4:52 am 04:52 Cloudy 70 21.1 68 20 93 93 NNW 8 13 29.8 1009 7 11.265408 0 0
4:59 am 04:59 Cloudy 70 21.1 68 20 93 93 NW 8 13 29.8 1009 7 11.265408 0 0
5:52 am 05:52 Cloudy 70 21.1 68 20 93 93 N 6 9 29.8 1009 8 12.874752 0 0
6:17 am 06:17 Cloudy 70 21.1 68 20 93 93 NNW 8 13 29.83 1010 9 14.484096 0 0
6:32 am 06:32 Cloudy with Mist and Fog 69 20.6 68 20 96 96 NW 9 15 29.83 1010 6 9.656064 0 0
6:52 am 06:52 Cloudy with Mist and Fog 69 20.6 67 19.4 93 93 NW 9 15 29.83 1010 6 9.656064 0 0
7:34 am 07:34 Cloudy 67 19.4 64 17.8 91 91 NW 10 17 29.85 1011 7 11.265408 0 0
7:52 am 07:52 Cloudy 67 19.4 64 17.8 91 91 NNW 8 13 29.85 1011 7 11.265408 0 0
8:52 am 08:52 Sunny 67 19.4 63 17.2 87 87 undefined N/A 29.85 1011 10 16.09344 0 0
8:58 am 08:58 Cloudy 67 19.4 61 16.1 81 81 N 21 33 29.88 1012 10 16.09344 0 0
9:52 am 09:52 Cloudy with Light Rain 67 19.4 61 16.1 81 81 N 13 20 29.88 1012 10 16.09344 0.001 0.001
10:47 am 10:47 Cloudy with Light Rain 66 19 63 17 88 88 NNW 13 20 29.91 1013 10 16.09344 0.001 0.001
10:52 am 10:52 Cloudy with Light Rain 66 18.9 62 16.7 87 87 NNW 12 19 29.88 1012 10 16.09344 0.001 0.001
11:52 am 11:52 Cloudy with Light Rain 65 18.3 63 17.2 93 93 NNW 12 19 29.91 1013 5 8.04672 0.001 0.001
12:25 pm 12:25 Cloudy with Light Rain 65 18.3 63 17.2 93 93 NNW 13 20 29.94 1014 4 6.437376 0.04 1.016
12:52 pm 12:52 Cloudy with Light Rain 65 18.3 63 17.2 93 93 N 13 20 29.91 1013 5 8.04672 0.06 1.524
1:52 pm 13:52 Cloudy with Light Rain 65 18.3 62 16.7 90 90 N 10 17 29.91 1013 10 16.09344 0.03 0.762
2:19 pm 14:19 Cloudy with Light Rain 65 18.3 63 17.2 93 93 N 9 15 29.91 1013 8 12.874752 0.001 0.001
2:52 pm 14:52 Cloudy with Heavy Rain 65 18.3 63 17.2 93 93 NNW 7 11 29.91 1013 5 8.04672 0.02 0.508
3:04 pm 15:04 Cloudy with Rain 64 17.8 63 17.2 96 96 N 9 15 29.91 1013 3 4.828032 0.04 1.016
3:06 pm 15:06 Cloudy with Rain 64 17.8 63 17.2 96 96 NNW 9 15 29.91 1013 2.5 4.02336 0.05 1.27
3:18 pm 15:18 Cloudy with Heavy Rain 64 17.8 63 17.2 96 96 NNW 9 15 29.91 1013 1.75 2.816352 0.1 2.54
3:28 pm 15:28 Cloudy with Rain 64 17.8 63 17.2 96 96 NNW 7 11 29.91 1013 2 3.218688 0.16 4.064
3:31 pm 15:31 Cloudy with Light Rain 64 17.8 63 17.2 96 96 NNW 9 15 29.91 1013 3 4.828032 0.16 4.064
3:34 pm 15:34 Cloudy with Light Rain 64 17.8 63 17.2 96 96 NNW 9 15 29.91 1013 4 6.437376 0.16 4.064
3:44 pm 15:44 Cloudy with Light Rain 64 17.8 63 17.2 96 96 N 8 13 29.91 1013 5 8.04672 0.17 4.318
3:52 pm 15:52 Cloudy with Rain 65 18.3 63 17.2 93 93 N 10 17 29.88 1012 4 6.437376 0.19 4.826
4:12 pm 16:12 Cloudy with Rain 64 17.8 61 16.1 90 90 NNE 10 17 29.91 1013 4 6.437376 0.03 0.762
4:21 pm 16:21 Cloudy with Light Rain 64 17.8 62 16.7 93 93 NE 12 19 29.91 1013 3 4.828032 0.06 1.524
4:52 pm 16:52 Cloudy with Light Rain 64 17.8 62 16.7 93 93 ENE 12 19 29.88 1012 10 16.09344 0.08 2.032
5:52 pm 17:52 Cloudy with Light Rain 64 17.8 62 16.7 93 93 NE 9 15 29.88 1012 9 14.484096 0.02 0.508
5:58 pm 17:58 Cloudy with Light Rain 64 17.8 62 16.7 93 93 NE 7 11 29.91 1013 10 16.09344 0.001 0.001
6:20 pm 18:20 Cloudy with Light Rain 64 17.8 62 16.7 93 93 NE 8 13 29.91 1013 9 14.484096 0.01 0.254
6:22 pm 18:22 Cloudy with Light Rain 64 17.8 62 16.7 93 93 NE 9 15 29.91 1013 10 16.09344 0.01 0.254
6:52 pm 18:52 Cloudy with Light Rain 63 17.2 62 16.7 97 97 NE 8 13 29.88 1012 10 16.09344 0.02 0.508
7:02 pm 19:02 Cloudy with Light Rain 63 17.2 62 16.7 97 97 ENE 9 15 29.91 1013 9 14.484096 0.001 0.001
7:16 pm 19:16 Cloudy with Light Rain 63 17.2 61 16.1 93 93 ENE 8 13 29.91 1013 10 16.09344 0.001 0.001
7:22 pm 19:22 Cloudy with Light Rain 63 17.2 61 16.1 93 93 ENE 8 13 29.88 1012 10 16.09344 0.01 0.254
7:30 pm 19:30 Cloudy with Light Rain 63 17.2 61 16.1 93 93 ENE 8 13 29.88 1012 10 16.09344 0.01 0.254
7:52 pm 19:52 Cloudy with Light Rain 63 17.2 61 16.1 93 93 ENE 8 13 29.85 1011 10 16.09344 0.01 0.254
8:34 pm 20:34 Cloudy with Light Rain 63 17.2 61 16.1 93 93 NE 5 7 29.91 1013 8 12.874752 0.03 0.762
8:52 pm 20:52 Cloudy with Light Rain 63 17.2 61 16.1 93 93 E 3 6 29.91 1013 10 16.09344 0.05 1.27
8:56 pm 20:56 Cloudy with Light Rain 63 17.2 61 16.1 93 93 Calm 29.94 1014 10 16.09344 0.001 0.001
9:52 pm 21:52 Cloudy with Light Rain 62 16.7 61 16.1 96 96 ENE 6 9 29.88 1012 8 12.874752 0.05 1.27
10:07 pm 22:07 Cloudy with Light Rain 62 16.7 61 16.1 96 96 W 7 11 29.94 1014 10 16.09344 0.001 0.001
10:09 pm 22:09 Cloudy with Light Rain 63 17.2 61 16.1 93 93 W 9 15 29.94 1014 10 16.09344 0.001 0.001
10:14 pm 22:14 Cloudy 63 17.2 60 15.6 90 90 WNW 6 9 29.94 1014 10 16.09344 0.001 0.001
10:29 pm 22:29 Cloudy with Light Rain 63 17.2 59 15 87 87 N 9 15 29.88 1012 10 16.09344 0.001 0.001
10:42 pm 22:42 Cloudy with Light Rain 62 16.7 60 15.6 93 93 WNW 8 13 29.94 1014 9 14.484096 0.001 0.001
10:52 pm 22:52 Mostly Cloudy with Light Rain 62 16.7 59 15 90 90 NW 8 13 29.91 1013 10 16.09344 0.001 0.001
11:52 pm 23:52 Cloudy 62 16.7 59 15 90 90 WNW 3 6 29.91 1013 10 16.09344 0.001 0.001

Powered by AerisWeather